Regional Weather Roundup
Issued by NWS New Orleans/Baton Rouge, LA

Home | Current Version | Previous Version | Graphics & Text | Print | Product List | Glossary On
Versions: 1 2 3 4 5 6 7 8 9 10 11 12 13 14 15 16 17 18 19 20 21 22 23 24 25 26 27 28 29 30 31 32 33 34 35 36 37 38 39 40 41 42 43 44 45 46 47 48 49 50
433
ASUS44 KLIX 021110
RWRLIX
NEW ORLEANS REGIONAL WEATHER ROUNDUP
NATIONAL WEATHER SERVICE NEW ORLEANS LA
500 AM CST MON MAR 02 2015

NOTE: "FAIR" INDICATES FEW OR NO CLOUDS BELOW 12,000 FEET WITH NO
      SIGNIFICANT WEATHER AND/OR OBSTRUCTIONS TO VISIBILITY.
      SKY/WX - SKY CONDITION AND SIGNIFICANT WEATHER.
      TMP - AIR TEMPERATURE.     DP    - DEWPOINT TEMPERATURE.
      RH  - RELATIVE HUMIDITY.   PRES  - PRESSURE.
      HI  - HEAT INDEX.          WCI   - WIND CHILL INDEX.

*  THESE STATIONS ARE NOT NWS OR FAA STATIONS AND ARE NOT UNDER
   NWS QUALITY CONTROL.

LAZ038-040-048-061>063-065>067-069-021200-
SOUTHEAST LOUISIANA

CITY           SKY/WX    TMP DP  RH WIND       PRES   REMARKS
N.O. AUDUBON   NOT AVBL
N.O. INTL ARPT CLOUDY    60  58  92 CALM      30.25S
N.O. LAKEFRONT FOG       57  55  93 E6        30.26S VSB 3/4
SLIDELL        CLOUDY    60  60 100 SE3       30.25F
BATON ROUGE    CLOUDY    61  60  97 E7        30.24S
BOOTHVILLE     FOG       62  62 100 E5        30.25R VSB 1/4
BELLE CHASSE   CLOUDY    62  58  86 NE5       30.25R
BOGALUSA*        N/A     62  59  90 S3        30.26S FOG
GALLIANO*      CLOUDY    53  53  99 CALM      30.25R
NEW ROADS*     LGT RAIN  61  60  98 CALM      30.24R
GONZALES*      CLOUDY    60  60 100 CALM      30.24S
HAMMOND*       CLOUDY    61  59  94 SE6       30.26S
HOUMA*         CLOUDY    60  60  98 NE3       30.24R
PORT FOURCHON* FOG       61  61 100 NE7       30.27S VSB 1/4

$$

MSZ070-080>082-021200-
SOUTHERN MISSISSIPPI

CITY           SKY/WX    TMP DP  RH WIND       PRES   REMARKS
MCCOMB         CLOUDY    60  59  96 CALM      30.25R
GULFPORT       LGT RAIN  57  56  96 SE7       30.26R FOG
BILOXI         CLOUDY    57  57 100 SE2       30.26R
PASCAGOULA     CLOUDY    57  56  96 SE5       30.27R

$$

COASTAL OBSERVATIONS
LAKE AND NEARSHORE STATIONS

STATION/POSITION TIME  TEMP    WIND        PRES    WAVE
                       AIR SEA DIR/SP/G            HT/PER
                 (UTC) (F)     (DEG/KT/KT) (MB)    (FT/S)
PASCAGOULA       1100   58     100/  7/ 10 1024.3
WAVELAND YACHT   1100   56 54   90/  3/  4 1024.7
GRAND ISLE       1100   60 60  350/  3/  6 1024.6
SOUTHWEST PASS   1100   59 47  110/ 11/ 12 1023.9
NEW CANAL        1100   55      80/  5/  6 1024.7
SHELL BEACH      1100   59 55  110/ 13/ 16 1024.0

OFFSHORE STATIONS

STATION/POSITION TIME  TEMP    WIND        PRES    WAVE
                       AIR SEA DIR/SP/G            HT/PER
                 (UTC) (F)     (DEG/KT/KT) (MB)    (FT/S)
64 S DAUPHIN ISL 1046   68 71  110/ 17/ 19 1024.3    3/ 6

$$




USA.gov is the U.S. government's official web portal to all federal, state and local government web resources and services.